#timestamp,LO_Frequency,Hit,StdDev 
1460286015.7,286047006.6,P
1460286035.6,286047006.7,P
1460286055.4,286047004.6,N
1460286075.2,286047007.0,Y
1460286095.1,286047000.9,P
1460286096.0,286047000.9,N
1460286115.8,286046998.5,N
1460286135.6,286046997.0,N
1460286155.4,286046995.0,N
1460286175.3,286046999.6,N
1460286195.1,286047001.0,N
1460286215.8,286046999.4,N
1460286235.7,286046998.1,N
1460286255.5,286047003.8,N
1460286275.3,286047005.8,N
1460286295.2,286047007.0,N
1460286315.9,286047006.4,N
1460286335.7,286047005.9,N
1460286355.6,286047004.2,N
1460286375.4,286047003.8,N
1460286395.2,286047003.9,N
1460286415.1,286047004.0,N
1460286416.0,286047004.0,N
1460286435.8,286047001.8,N
1460286455.6,286047003.9,N
1460286475.4,286047003.2,N
1460286495.3,286047001.6,N
1460286515.1,286047005.9,N
1460286535.8,286047005.1,N
1460286555.7,286047006.7,N
1460286575.5,286047007.2,N
1460286595.3,286047007.7,N
1460286615.2,286047011.2,Y
1460286635.9,286047005.2,P
1460286655.7,286047004.1,P
1460286675.6,286047001.8,N
1460286695.4,286047000.1,N
1460286715.2,286047000.3,N
1460286735.1,286047002.4,N
1460286736.0,286047002.4,N
1460286755.8,286046998.3,N
1460286775.6,286047001.2,N
1460286795.5,286046999.9,N
1460286815.3,286047001.2,N
1460286835.1,286047001.5,N
1460286855.8,286047001.6,N
1460286875.7,286046998.3,N
1460286895.5,286046998.3,N
1460286915.3,286046996.8,N
1460286935.2,286046996.1,N
1460286955.9,286046993.5,N
1460286975.7,286046993.8,N
1460286995.6,286046994.9,N
1460287015.4,286046998.6,N
1460287035.2,286047002.3,N
1460287055.1,286047000.5,N
1460287056.0,286047000.5,N
1460287075.8,286047000.9,N
1460287095.6,286046998.3,N
1460287115.4,286047001.6,N
1460287135.3,286047003.6,N
1460287155.1,286047003.4,N
1460287175.8,286047003.3,N
1460287195.7,286047005.8,N
1460287215.5,286047004.9,N
1460287235.3,286047006.7,N
1460287255.2,286047006.1,N
1460287275.9,286047007.2,N
1460287295.7,286047007.6,N
1460287315.6,286047007.2,N
1460287335.4,286047006.5,N
1460287355.2,286047007.4,N
1460287375.1,286047005.0,N
1460287376.0,286047005.0,N
1460287395.8,286047004.7,N
1460287415.6,286047005.8,N
1460287435.5,286047004.4,N
1460287455.3,286047001.6,N
1460287475.1,286047004.0,N
1460287495.8,286046999.7,N
1460287515.7,286046998.5,N
1460287535.5,286047000.9,N
1460287555.3,286046999.1,N
1460287575.2,286046997.0,N
1460287595.0,286047001.1,N
1460287595.9,286047001.1,N
1460287615.7,286046999.5,N
1460287635.6,286047001.1,N
1460287655.4,286047002.5,N
1460287675.2,286047004.1,N
1460287695.1,286047001.8,N
1460287696.0,286047001.8,N
1460287715.8,286047007.1,N
1460287735.6,286047004.7,N
1460287755.5,286047005.4,N
1460287775.3,286047004.0,N
1460287795.1,286047000.2,N
1460287815.9,286047002.8,N
1460287835.7,286047002.8,N
1460287855.5,286047000.0,N
1460287875.3,286046998.2,N
1460287895.2,286047000.0,N
1460287915.0,286047002.3,N
1460287915.9,286047002.3,N
1460287935.7,286046997.8,N
1460287955.6,286046995.7,N
1460287975.4,286046994.2,N
1460287995.2,286046990.2,Y
1460288015.1,286046991.6,P
1460288016.0,286046991.6,N
1460288035.8,286046989.0,N
1460288055.6,286046988.9,N
1460288075.5,286046991.3,N
1460288095.3,286046991.4,N
1460288115.1,286046996.1,N
1460288135.9,286046994.1,N
1460288155.7,286046995.7,N
1460288175.5,286046994.5,N
1460288195.4,286046999.3,N
1460288215.2,286046998.5,N
1460288235.0,286046995.6,N
1460288235.9,286046995.6,N
1460288255.8,286047001.0,N
1460288275.6,286047002.8,N
1460288295.4,286047001.7,N
1460288315.3,286047001.3,N
1460288335.1,286047002.0,N
1460288336.0,286047002.0,N
1460288355.8,286047003.8,N
1460288375.6,286047005.7,N
1460288395.5,286047003.8,N
1460288415.3,286047004.4,N
1460288435.1,286047002.9,N
1460288455.9,286047004.0,N
1460288475.7,286047000.8,N
1460288495.5,286047001.1,N
1460288515.4,286046996.7,N
1460288535.2,286046995.5,N
1460288555.0,286046993.3,N
1460288555.9,286046993.3,N
1460288575.8,286046994.3,N
1460288595.6,286046994.4,N
1460288615.4,286046990.8,N
1460288635.3,286046989.8,N
1460288655.1,286046988.1,N
1460288656.0,286046988.1,N
1460288675.8,286046988.3,N
1460288695.7,286046984.3,N
1460288715.5,286046984.4,N
1460288735.3,286046980.7,Y
1460288755.2,286046983.8,P
1460288775.9,286046982.1,N
1460288795.7,286046985.0,N
1460288815.6,286046980.5,Y
1460288835.4,286046994.2,P
1460288855.2,286046990.2,N
1460288875.1,286046990.1,P
1460288876.0,286046990.1,Y
1460288895.8,286047002.7,P
1460288915.6,286046999.3,N
1460288935.5,286046999.0,N
1460288955.3,286046996.5,N
1460288975.1,286046999.4,N
1460288995.9,286046995.5,N
1460289015.7,286046995.6,N
1460289035.5,286046993.3,N
1460289055.3,286046993.1,N
1460289075.2,286046992.8,N
1460289095.0,286046990.2,N
1460289095.9,286046990.2,N
1460289115.7,286046990.2,N
1460289135.6,286046990.1,N
1460289155.4,286046991.0,N
1460289175.2,286046987.4,Y
1460289195.1,286046997.8,P
1460289196.0,286046997.8,N
1460289215.8,286046995.1,P
1460289235.6,286046992.2,Y
1460289255.5,286046996.7,P
1460289275.3,286046998.6,P
1460289295.1,286046998.2,N
1460289315.9,286046997.3,N
1460289335.7,286046997.3,Y
1460289355.5,286046998.7,P
1460289375.4,286046997.4,P
1460289395.2,286046995.2,P
1460289415.0,286046998.0,N
1460289415.9,286046998.0,N
1460289435.8,286046994.9,Y
1460289455.6,286047001.1,P
1460289475.4,286046999.9,N
1460289495.3,286046998.1,N
1460289515.1,286046999.9,N
1460289535.8,286047000.3,N
1460289555.7,286047000.5,N
1460289575.5,286046999.4,N
1460289595.3,286046996.9,N
